{"data":{"norad_id":63184,"intl_designator":"2025-048B","name":"STARLINK-11617 [DTC]","alt_names":[],"object_type":"PAYLOAD","status":"ACTIVE","operator":null,"country":"US","launch_date":"2025-03-13","launch_site_code":"AFETR","launch_vehicle":null,"mission":null,"orbit_class":"UNKNOWN","rcs_meters":null,"size_class":null,"mass_kg":null,"dimensions":null,"purposes":["comms"],"wikipedia_slug":null,"has_3d_model":false,"image_url":null,"decayed_at":null,"tle_current":{"epoch":"2026-09-21T05:46:27.318144Z","epoch_age_seconds":98318,"freshness":"FRESH","line1":"1 63184U 25048B   26264.24059396  .00123817  00000+0  95162-3 0  9996","line2":"2 63184  42.9990 221.4154 0003352 253.2935 106.7565 15.70898058 89275","mean_motion":15.70898058,"eccentricity":0.0003352,"inclination_deg":42.999,"raan_deg":221.4154,"arg_perigee_deg":253.2935,"mean_anomaly_deg":106.7565,"bstar":0.00095162,"rev_number":8927,"period_min":91.667310470378,"perigee_km":354.07173300415,"apogee_km":358.58651909506,"semimajor_km":6734.4661260496,"source":"CELESTRAK","updated_at":"2026-09-22T09:00:49.794635Z"}}}